This is the latest recevied weather packets stored in our database for station/object DB0ASF-4. If no packets are shown the sender has not sent any weather packets the latest 10 day(s).
| Time | Temp. | Humidity | Pressure | Rain* | Wind** | Luminosity | Snow |
|---|---|---|---|---|---|---|---|
| 1776979153 | 10° C | 41% | 1029 hPa | 0 mm | - | - | - |
| 1776978553 | 10° C | 40% | 1029 hPa | 0 mm | - | - | - |
| 1776977953 | 10.56° C | 39% | 1029 hPa | 0 mm | - | - | - |
| 1776977353 | 11.11° C | 38% | 1029 hPa | 0 mm | - | - | - |
| 1776976753 | 11.67° C | 35% | 1029 hPa | 0 mm | - | - | - |
| 1776976153 | 12.22° C | 34% | 1029 hPa | 0 mm | - | - | - |
| 1776975553 | 12.78° C | 33% | 1028.8 hPa | 0 mm | - | - | - |
| 1776974953 | 12.78° C | 33% | 1028.9 hPa | 0 mm | - | - | - |
| 1776974353 | 13.33° C | 32% | 1028.6 hPa | 0 mm | - | - | - |
| 1776973753 | 13.33° C | 32% | 1028.5 hPa | 0 mm | - | - | - |
| 1776973153 | 13.89° C | 31% | 1028.5 hPa | 0 mm | - | - | - |
| 1776972553 | 13.89° C | 31% | 1028.5 hPa | 0 mm | - | - | - |
| 1776971953 | 14.44° C | 31% | 1028.3 hPa | 0 mm | - | - | - |
| 1776971353 | 14.44° C | 31% | 1028.5 hPa | 0 mm | - | - | - |
| 1776970753 | 14.44° C | 33% | 1028.3 hPa | 0 mm | - | - | - |
| 1776970153 | 15° C | 33% | 1028 hPa | 0 mm | - | - | - |
| 1776969553 | 15.56° C | 33% | 1028 hPa | 0 mm | - | - | - |
| 1776968953 | 16.11° C | 32% | 1028 hPa | 0 mm | - | - | - |
| 1776968353 | 16.11° C | 32% | 1028 hPa | 0 mm | - | - | - |
| 1776967753 | 16.11° C | 32% | 1027.8 hPa | 0 mm | - | - | - |
| 1776967153 | 16.67° C | 30% | 1027.8 hPa | 0 mm | - | - | - |
| 1776966553 | 17.22° C | 29% | 1027.8 hPa | 0 mm | - | - | - |
| 1776965953 | 17.22° C | 29% | 1027.8 hPa | 0 mm | - | - | - |
| 1776965353 | 17.78° C | 28% | 1027.8 hPa | 0 mm | - | - | - |
| 1776964753 | 18.33° C | 28% | 1027.8 hPa | 0 mm | - | - | - |
* Rain latest hour (hover to see other rain measurements)
** Current wind speed in m/s (hover to see current wind gust speed)